Location: *
(47.6569°N, 7.4256°E)
Time: 13:28:39
(UTC+00:00)

SeaSat 1 - Pass Details

Date: 14 December 2019
Orbit: 744 x 748 km, 108.0° (Epoch: 22 January)

Event Time Altitude Azimuth Distance (km) Brightness Sun altitude
Exits shadow 17:29:55 13° 19° (NNE) 2,041 4.4 -17.8°
Drops below altitude 10° 17:31:15 10° 4° (N) 2,273 4.8 -18.0°
Sets 17:34:28 0° 342° (NNW) 3,201 5.8 -18.5°
